Regional Weather Roundup
Issued by NWS

Home | Current Version | Previous Version | Text Only | Print | Product List | Glossary Off
Versions: 1 2 3 4 5 6 7 8 9 10 11 12 13 14 15 16 17 18 19 20 21 22 23 24 25 26 27 28 29 30 31 32 33 34 35 36 37 38 39 40 41 42 43 44 45 46 47 48 49 50

000
ASUS43 KFSD 231002
RWRSD

WEATHER ROUNDUP FOR SOUTH DAKOTA
NATIONAL WEATHER SERVICE SIOUX FALLS SD
500 AM CDT TUE SEP 23 2014

NOTE: "FAIR" INDICATES FEW OR NO CLOUDS BELOW 12,000 FEET WITH NO
SIGNIFICANT WEATHER AND/OR OBSTRUCTIONS TO VISIBILITY.


SDZ001>005-009-010-012>017-231100-
NORTHWEST AND NORTH CENTRAL SOUTH DAKOTA

CITY           SKY/WX    TMP DP  RH WIND       PRES   REMARKS
FAITH            N/A     58  56  93 S15       29.90R
MOBRIDGE       CLOUDY    63  55  75 S14       29.91S
$$

SDZ012>016-024>037-041>051-057-063-072>074-231100-
SOUTHWEST AND SOUTH CENTRAL SOUTH DAKOTA

CITY           SKY/WX    TMP DP  RH WIND       PRES   REMARKS
RAPID CTY ARPT CLOUDY    57  55  93 CALM      29.91R
PIERRE         CLOUDY    61  54  77 SE21      29.94F
CUSTER         CLOUDY    51  46  83 NW6       30.02R
ELLSWORTH AFB  CLOUDY    58  56  90 N3        29.91R
PHILIP         CLOUDY    57  53  86 E5        29.90F
PINE RIDGE     PTCLDY    55  52  89 SW5       29.92F
WINNER         CLOUDY    61  53  75 S17G30    29.97S
$$

SDZ004>011-016>023-039-040-231100-
NORTHEAST SOUTH DAKOTA

CITY           SKY/WX    TMP DP  RH WIND       PRES   REMARKS
ABERDEEN       CLEAR     59  51  75 S10       30.00F
WATERTOWN      MOCLDY    54  48  80 SE13      30.07R
SISSETON         N/A     50  49  96 S8        30.06R
$$

SDZ017-020-022-023-036>040-048>070-231100-
SOUTHEAST SOUTH DAKOTA

CITY           SKY/WX    TMP DP  RH WIND       PRES   REMARKS
SIOUX FALLS    CLOUDY    60  50  69 S8        30.11S
HURON          CLOUDY    62  52  69 S8        30.03S
CHAMBERLAIN    CLOUDY    60  54  79 S12G17    30.00S
MITCHELL       CLOUDY    61  54  77 S8        30.06S
YANKTON        CLOUDY    59  54  82 S6        30.10S
$$

ABBREVIATIONS USED IN REMARKS
   TC - TEMPERATURE IN CELSIUS
  WCI - WIND CHILL INDEX
   HX - HEAT INDEX
  VSB - VISIBILITY



USA.gov is the U.S. government's official web portal to all federal, state and local government web resources and services.